Weather History for Milwaukee, WI

Change the Weather History Date:

Tuesday, September 17, 2013

  Actual Average Record
Temperature  
Mean Temperature 57 °F 63 °F  
Max Temperature 66 °F 71 °F 92 °F (1891)
Min Temperature 47 °F 54 °F 39 °F (1916)
Degree Days  
Heating Degree Days 8 4  
Month to date heating degree days 44 41  
Since 1 July heating degree days 66 67  
Cooling Degree Days 0 2  
Month to date cooling degree days 81 54  
Year to date cooling degree days 658 619  
Growing Degree Days 6 (Base 50)    
Moisture  
Dew Point 51 °F    
Average Humidity 75    
Maximum Humidity 86    
Minimum Humidity 63    
Precipitation  
Precipitation 0.00 in 0.11 in 2.35 in (1907)
Month to date precipitation 0.88 1.79  
Year to date precipitation 31.01 25.97  
Snow  
Snow 0.00 in 0.00 in 0.00 in ()
Month to date snowfall 0.0 0.0  
Since 1 July snowfall 0.0 0.0  
Since 1 September snowfall 0.0 0.0  
Snow Depth 0.00 in    
Sea Level Pressure  
Sea Level Pressure 30.28 in    
Wind  
Wind Speed 8 mph (SSE)    
Max Wind Speed 18 mph    
Max Gust Speed 22 mph    
Visibility 10 miles    
Events      
T = Trace of Precipitation, MM = Missing Value Source: NWS Daily Summary

Daily Weather History Graph

Daily Weather History Graph

Search for Another Location

Airport:

Trip Planner

Search our weather history database for the weather conditions in past years. The results will help you decide how hot, cold, wet, or windy it might be!

Date:

Astronomy

Sep. 17, 2013 Rise Set
Actual Time 6:33 AM CDT 6:57 PM CDT
Civil Twilight 6:05 AM CDT 7:25 PM CDT
Nautical Twilight 5:31 AM CDT 7:59 PM CDT
Astronomical Twilight 4:57 AM CDT 8:33 PM CDT
Moon 5:45 PM CDT (9/17) 4:25 AM CDT (9/17)
Length of Visible Light 13h 20m
Length of Day
12h 23m
Waxing Gibbous, 96% of the Moon is Illuminated
Sep 17
Waxing Gibbous
Sep 19
Full
Sep 26
Last Quarter
Oct 4
New
Oct 11
First Quarter

Hourly Weather History & Observations

Time (CDT) Temp. Dew Point Humidity Pressure Visibility Wind Dir Wind Speed Gust Speed Precip Events Conditions
12:52 AM 52.0 °F 46.0 °F 80% 30.35 in 10.0 mi ESE 3.5 mph - N/A   Scattered Clouds
1:52 AM 51.1 °F 46.0 °F 83% 30.36 in 10.0 mi WNW 3.5 mph - N/A   Scattered Clouds
2:52 AM 50.0 °F 45.0 °F 83% 30.35 in 10.0 mi WNW 3.5 mph - N/A   Scattered Clouds
3:52 AM 50.0 °F 45.0 °F 83% 30.35 in 10.0 mi WNW 3.5 mph - N/A   Scattered Clouds
4:52 AM 48.0 °F 44.1 °F 86% 30.35 in 10.0 mi Calm Calm - N/A   Scattered Clouds
5:52 AM 48.9 °F 45.0 °F 86% 30.34 in 10.0 mi Calm Calm - N/A   Scattered Clouds
6:52 AM 48.9 °F 45.0 °F 86% 30.35 in 10.0 mi Calm Calm - N/A   Mostly Cloudy
7:52 AM 53.1 °F 48.0 °F 83% 30.35 in 10.0 mi Calm Calm - N/A   Mostly Cloudy
8:52 AM 57.9 °F 52.0 °F 81% 30.35 in 10.0 mi SSW 4.6 mph - N/A   Mostly Cloudy
9:52 AM 62.1 °F 52.0 °F 70% 30.34 in 10.0 mi South 8.1 mph - N/A   Mostly Cloudy
10:37 AM 62.6 °F 51.8 °F 68% 30.33 in 10.0 mi South 9.2 mph - N/A   Mostly Cloudy
10:52 AM 62.1 °F 51.1 °F 67% 30.33 in 10.0 mi SSE 10.4 mph - N/A   Mostly Cloudy
11:35 AM 64.4 °F 55.4 °F 73% 30.32 in 10.0 mi SSE 12.7 mph - N/A   Mostly Cloudy
11:52 AM 64.0 °F 54.0 °F 70% 30.32 in 10.0 mi SE 15.0 mph - N/A   Mostly Cloudy
12:19 PM 64.4 °F 53.6 °F 68% 30.30 in 10.0 mi SE 15.0 mph - N/A   Mostly Cloudy
12:52 PM 64.9 °F 54.0 °F 68% 30.30 in 10.0 mi SE 17.3 mph - N/A   Mostly Cloudy
1:52 PM 64.0 °F 53.1 °F 67% 30.27 in 10.0 mi ESE 16.1 mph - N/A   Mostly Cloudy
2:47 PM 64.4 °F 53.6 °F 68% 30.25 in 10.0 mi SE 15.0 mph 21.9 mph N/A   Mostly Cloudy
2:52 PM 64.0 °F 53.1 °F 67% 30.25 in 10.0 mi SE 15.0 mph 21.9 mph N/A   Mostly Cloudy
3:52 PM 64.9 °F 53.1 °F 65% 30.22 in 10.0 mi SE 16.1 mph - N/A   Mostly Cloudy
4:52 PM 64.0 °F 52.0 °F 65% 30.22 in 10.0 mi SE 13.8 mph - N/A   Mostly Cloudy
5:52 PM 62.1 °F 52.0 °F 70% 30.19 in 10.0 mi ESE 10.4 mph - N/A   Mostly Cloudy
6:52 PM 61.0 °F 52.0 °F 72% 30.18 in 10.0 mi SSE 6.9 mph - N/A   Mostly Cloudy
7:52 PM 61.0 °F 53.1 °F 75% 30.18 in 10.0 mi South 4.6 mph - N/A   Mostly Cloudy
8:52 PM 62.1 °F 54.0 °F 75% 30.17 in 10.0 mi SSE 6.9 mph - N/A   Mostly Cloudy
9:52 PM 63.0 °F 54.0 °F 72% 30.16 in 10.0 mi South 5.8 mph - N/A   Mostly Cloudy
10:52 PM 64.0 °F 55.0 °F 73% 30.15 in 10.0 mi SSE 8.1 mph - N/A   Mostly Cloudy
11:52 PM 63.0 °F 55.0 °F 75% 30.13 in 10.0 mi SSE 8.1 mph - N/A   Mostly Cloudy